www.pogodaiklimat.ru

Погода и климат >> Архив погоды >> Алжир >> In Amenas


ПОГОДА в In Amenas

  • Прогноз погоды в In Amenas
  • Монитор погоды в In Amenas
  • Климат города

АРХИВ ПОГОДЫ в In Amenas

Время (UTC), дата Ветер
(напр.,м/с)
 
Видим.   Явления Облачность Т
(С)
Тd
(С)
f
(%)
Тe
(С)
Тes
(С)
Комфортность P
(гПа)
Po
(гПа)
Тmin
(С)
Tmax
(С)
R
(мм)
R24
(мм)
S
(см)
12 12.12 ЮВ 5 10 км ясно +20.5 +1.1 27 +21 +25 комфорт 1022.2 1022.0
15 12.12 Ю 2 10 км ясно +22.3 -1.6 20 +21 +23 комфорт 1019.9 1020.0
18 12.12 В 3 10 км ясно +15.8 -3.0 27 +16 +16 1021.2 1021.0 +22.9
21 12.12 В 3 10 км ясно +10.7 -4.3 35 +9 +9 1021.5 1022.0
00 13.12 СВ 4 10 км ясно +8.4 -3.6 43 +6 +6 1019.9 1020.0
03 13.12 СВ 2 10 км ясно +5.9 -3.7 50 +4 +4 1019.4 1019.0
06 13.12 СВ 4 10 км ясно +4.4 -3.8 55 +1 +1 1020.9 1021.0 +4.3
09 13.12 СВ 1 10 км ясно +13.8 -1.1 36 +14 +20 1021.7 1022.0
12 13.12 З 3 10 км 4/0
[Ci sp]
+21.5 -3.0 19 +21 +27 комфорт 1019.1 1019.0
15 13.12 З 4 10 км 5/0
[Ci sp]
+22.7 -4.3 16 +21 +22 комфорт 1017.8 1018.0
18 13.12 З 3 10 км 3/0
[Ci sp]
+16.2 -4.4 24 +16 +16 1019.1 1019.0 +23.1
21 13.12 Ю 3 10 км ясно +13.5 -4.5 28 +13 +13 1018.5 1019.0
00 14.12 Ю 2 10 км ясно +9.8 -4.6 36 +9 +9 1017.3 1017.0
03 14.12 Ю 3 10 км ясно +11.4 -5.5 30 +10 +10 1015.5 1016.0
06 14.12 З 2 10 км ясно +6.7 -7.4 36 +5 +5 1017.6 1018.0 +6.6
09 14.12 ЮЗ 4 10 км 3/0
[Ci sp]
+16.4 -4.9 23 +16 +19 1018.0 1018.0
12 14.12 З 6 10 км 3/0
[Ci sp]
+20.0 -5.8 17 +19 +22 1016.6 1017.0
15 14.12 ЮЗ 10 8000 м пыльный позёмок 3/0
[Ci sp]
+20.3 -7.1 15 +19 +19 1015.0 1015.0
18 14.12 ЮЗ 3 8000 м 3/0
[Ci sp]
+15.9 -7.0 20 +16 +16 1016.7 1017.0 +21.0
21 14.12 СЗ 6 8000 м 3/0
[Ci sp]
+13.1 -4.8 28 +11 +11 1017.8 1018.0
00 15.12 З 3 8000 м 3/0
[Ci sp]
+9.7 -6.1 32 +8 +8 1017.9 1018.0
03 15.12 СВ 4 8000 м 3/0
[Ci sp]
+7.5 -6.0 38 +5 +5 1018.2 1018.0
06 15.12 З 3 5000 м 6/0
[Ac trans Ci sp]
+7.5 -6.0 38 +6 +6 1020.5 1021.0 +6.6
09 15.12 З 6 3000 м мгла 6/0
[Ac trans Ci sp]
+11.2 -3.6 35 +9 +11 1023.2 1023.0
12 15.12 З 7 2500 м мгла 4/0
[Ci sp]
+15.3 +0.4 36 +14 +16 1022.2 1022.0
15 15.12 З 6 3000 м мгла 4/0
[Ci sp]
+16.0 +1.8 38 +15 +16 1022.4 1022.0
18 15.12 СЗ 4 4000 м мгла 4/0
[Ci sp]
+12.6 +1.2 46 +11 +11 1024.6 1025.0 +16.4
21 15.12 З 2 8000 м ясно +9.6 +1.6 57 +9 +9 1026.2 1026.0
00 16.12 СЗ 3 8000 м ясно +7.1 +0.7 64 +4 +4 1026.3 1026.0
03 16.12 СЗ 3 8000 м ясно +4.3 -1.2 67 +1 +1 1026.8 1027.0
06 16.12 С 2 8000 м ясно +3.2 -3.3 62 +1 +1 1029.3 1029.0 +3.1
09 16.12 СВ 4 8000 м ясно +11.3 -0.8 43 +9 +13 1029.6 1030.0
12 16.12 В 4 10 км ясно +15.1 -2.2 30 +14 +21 1027.8 1028.0
15 16.12 СВ 2 10 км ясно +16.0 -1.7 30 +16 +18 1027.1 1027.0
18 16.12 В 3 10 км ясно +12.1 -3.2 34 +11 +11 1028.8 1029.0 +16.5
21 16.12 В 3 10 км ясно +8.4 -4.4 40 +7 +7 1029.1 1029.0
00 17.12 С 2 10 км ясно +5.4 -4.7 48 +4 +4 1028.6 1029.0
03 17.12 В 3 10 км ясно +4.2 -5.7 48 +2 +2 1027.8 1028.0
06 17.12 СВ 3 10 км ясно +2.5 -6.2 53 -1 -1 1028.4 1028.0 +2.5
09 17.12 СВ 3 10 км ясно +11.0 -3.1 37 +10 +14 1028.9 1029.0
12 17.12 ЮВ 5 10 км ясно +17.9 -2.3 25 +18 +22 1025.7 1026.0
15 17.12 В 2 10 км ясно +18.4 -3.6 22 +19 +21 1025.0 1025.0
18 17.12 ЮВ 3 10 км ясно +13.5 -3.6 30 +13 +13 1027.3 1027.0 +18.8
21 17.12 В 2 10 км ясно +9.2 -5.5 35 +8 +8 1027.9 1028.0
00 18.12 СВ 3 10 км ясно +6.8 -5.4 41 +5 +5 1027.1 1027.0
03 18.12 СВ 3 10 км ясно +4.4 -6.2 46 +1 +1 1026.9 1027.0
06 18.12 СВ 4 10 км ясно +3.8 -5.5 51 -0 -0 1028.0 1028.0 +3.8
09 18.12 СВ 4 10 км ясно +11.8 -2.5 37 +10 +14 1029.3 1029.0
12 18.12 СВ 5 8000 м ясно +17.9 -1.9 26 +17 +22 1027.0 1027.0
15 18.12 В 4 10 км 4/0
[Ci sp]
+19.0 -3.1 22 +19 +20 1025.6 1026.0
18 18.12 В 3 10 км 4/0
[Ci sp]
+13.8 -5.2 26 +13 +13 1027.1 1027.0 +19.5
21 18.12 В 2 10 км 4/0
[Ci sp]
+10.0 -4.9 35 +9 +9 1027.7 1028.0
00 19.12 СВ 5 10 км 4/0
[Ci sp]
+6.5 -4.3 46 +3 +3 1026.7 1027.0
03 19.12 СВ 5 10 км 4/0
[Ci sp]
+4.3 -2.9 59 0 0 1026.2 1026.0
06 19.12 СВ 3 10 км 4/0
[Ci sp]
+3.5 -2.2 66 -0 -0 1027.5 1028.0 +3.5

 

Местоположение метеостанции In Amenas (Алжир): широта 28.05 долгота 9.63 высота над уровнем моря 562 м.

В архиве по умолчанию представлена погода в In Amenas за последнюю неделю. Архивные данные за месяц целиком и за предыдущие месяцы, начиная с января 2011 года, Вы можете получить, выбрав интересующий диапазон дат из раскрывающегося списка и нажав кнопку "Ввод!".


*Определитесь, кто Вы:
робот инопланетянин человек

Внимание! Время в таблицах - всемирное. Для получения местного времени необходимо прибавить поправку, которая в In Amenas равна 1 ч.

Смотрите также архив погоды в соседних городах и на ближайших метеорологических станциях:

Погода в Tin Fouye (Алжир) (208 км)
Погода в Illizi (Алжир) (210 км)
Погода в Ghadames (Ливия) (232 км)
Погода в Fadnoune (Алжир) (287 км)
Погода в Rhourde-Nouss (Алжир) (340 км)
Погода в El Hamada (Ливия) (361 км)
Погода в Bordj Haous (Алжир) (381 км)
Погода в Tinalkoum (Алжир) (388 км)
Погода в El Borma (Тунис) (406 км)
Погода в Djanet (Алжир) (421 км)

Пояснения к столбцам:

Ветер - указаны скорость ветра в м/с - средняя за 10 мин, порывы в срок и между сроками (в фигурных скобках) и направление, откуда дует ветер: С - северный, СВ - северо-восточный, В - восточный, ЮВ - юго-восточный, Ю - южный, ЮЗ - юго-западный, З - западный, СЗ - северо-западный.
Видимость - горизонтальная дальность видимости в метрах или километрах. При видимости от 1 до 10 км при отсутствии осадков обычно наблюдается дымка, при ухудшении видимости до 1 км и менее - туман. В сухую погоду видимость может ухудшаться дымом, пылью или мглою.
Явления - указаны атмосферные явления, наблюдавшиеся в срок или в последний час перед сроком; фигурными скобками обозначены явления, наблюдавшиеся между сроками (за 1-3 часа до срока); квадратными скобками обозначены град или гололедные отложения с указанием их диаметра в мм.
Облачность - указаны через наклонную черту общая и нижняя облачность в баллах и высота нижней границы облаков в метрах; квадратными скобками обозначены формы облаков: Ci - перистые, Cs - перисто-слоистые, Cc - перисто-кучевые, Ac - высококучевые, As - высокослоистые, Sc - слоисто-кучевые, Ns - слоисто-дождевые, Cu - кучевые, Cb - кучево-дождевые. Подробнее классификацию облаков см. в Атласе облаков (PDF).
T - Температура воздуха - температура, измеренная на высоте 2 м над землей.
Td - Температура точки росы - температура, при понижении до которой содержащийся в воздухе водяной пар достигнет насыщения.
f - Относительная влажность воздуха - влажноcть воздуха, измеренная на высоте 2 м над землей.
Te - Эффективная температура - температура, которую ощущает одетый по сезону человек в тени. Характеристика душности погоды. При расчете учитывается влияние влажности воздуха и скорости ветра на теплоощущения человека.
Tes - Эффективная температура на солнце - температура, которую ощущает человек, с поправкой на солнечный нагрев. Характеристика знойности погоды. Зависит от высоты солнца над горизонтом, облачности и скорости ветра. Ночью, в пасмурную погоду, а также при ветре 12 м/с и более поправка равна нулю.
P - Атмосферное давление - приведенное к уровню моря атмосферное давление.
Po - Атмосферное давление - измеренное на уровне метеостанции атмосферное давление.
Tmin - Минимальная температура - минимум температуры воздуха на высоте 2 м над землей.
Tmax - Максимальная температура - максимум температуры воздуха на высоте 2 м над землей.
R - Количество осадков - Количество выпавших осадков за период времени, мм. При наведении курсора мыши на число - период времени, за который выпало указанное количество осадков.
R24 - Количество осадков - Количество выпавших осадков за 24 часа, мм.
S - Снежный покров - Высота снежного покрова, см. При наведении курсора мыши на число - состояние снежного покрова и степень покрытия местности в баллах.